This demonstration page uses our WeatherBlox Daily Observations layout. Learn more.

Left ArrowRight Arrow

Hourly Observations for May 4, 2015

Temp ( °F °C ) Dew Point ( °F °C ) Humidity (%) Winds ( mph kmh ) Pressure ( in mb ) Visibility ( mi km ) Precip ( " mm )
12:17 am 00:17 Cloudy with Thunderstorms 67 19.4 55 12.8 66 66 N 13 20 29.85 1011 10 16 0.00 0.00
12:52 am 00:52 Cloudy with Thunderstorms 66 18.9 55 12.8 68 68 N 8 13 29.89 1012 10 16 0.00 0.00
1:31 am 01:31 Cloudy 65 18.3 55 12.8 70 70 N 13 20 29.88 1012 10 16 0.00 0.00
1:52 am 01:52 Cloudy 64 17.8 55 12.8 73 73 N 9 15 29.90 1013 10 16 0.00 0.00
2:52 am 02:52 Cloudy 61 16.1 55 12.8 81 81 N 5 7 29.92 1013 10 16 0.00 0.00
3:52 am 03:52 Cloudy 61 16.1 54 12.2 78 78 NE 7 11 29.90 1013 10 16 0.00 0.00
4:52 am 04:52 Cloudy 59 15 52 11.1 78 78 NNW 12 19 29.94 1014 10 16 0.00 0.00
5:52 am 05:52 Cloudy 58 14.4 50 10 75 75 N 9 15 29.96 1015 10 16 0.00 0.00
6:52 am 06:52 Cloudy 59 15 50 10 72 72 WNW 3 6 30.04 1017 10 16 0.00 0.00
7:52 am 07:52 Cloudy 59 15 49 9.4 69 69 NNE 14 22 30.03 1017 10 16 0.00 0.00
8:52 am 08:52 Cloudy with Light Rain 59 15 51 10.6 75 75 N 18 30 30.02 1017 10 16 0.00 0.03
9:52 am 09:52 Cloudy 63 17.2 50 10 63 63 WNW 9 15 30.07 1018 10 16 0.00 0.03
10:52 am 10:52 Cloudy 62 16.7 51 10.6 67 67 N 9 15 30.07 1018 10 16 0.00 0.00
11:52 am 11:52 Cloudy 66 18.9 53 11.7 63 63 NE 9 15 30.06 1018 10 16 0.00 0.03
12:52 pm 12:52 Cloudy with Light Rain 65 18.3 56 13.3 73 73 NE 14 22 30.05 1018 9 14 0.00 0.03
12:59 pm 12:59 Cloudy with Light Rain 65 18.3 56 13.3 73 73 NNE 7 11 30.06 1018 10 16 0.01 0.25
1:52 pm 13:52 Cloudy with Light Rain 66 18.9 57 13.9 73 73 N 7 11 30.06 1018 9 14 0.01 0.25
2:52 pm 14:52 Cloudy with Light Rain 66 18.9 58 14.4 75 75 E 5 7 30.08 1019 10 16 0.01 0.25
3:52 pm 15:52 Cloudy 65 18.3 60 15.6 84 84 N 8 13 30.07 1018 10 16 0.01 0.25
4:52 pm 16:52 Cloudy 62 16.7 57 13.9 84 84 N 14 22 30.06 1018 10 16 0.00 0.03
5:24 pm 17:24 Cloudy with Light Rain 61 16 57 14 88 88 N 12 19 30.06 1018 5 8 0.00 0.00
5:52 pm 17:52 Cloudy with Light Rain 61 16.1 58 14.4 90 90 NNE 14 22 30.05 1018 10 16 0.02 0.51
6:29 pm 18:29 Cloudy with Light Rain 62 16.7 58 14.4 86 86 NNE 15 24 30.06 1018 9 14 0.00 0.03
6:52 pm 18:52 Cloudy with Light Rain 61 16.1 57 13.9 87 87 N 15 24 30.06 1018 9 14 0.00 0.03
7:04 pm 19:04 Cloudy with Light Rain 61 16 57 14 88 88 N 14 22 30.06 1018 6 10 0.00 0.00
7:52 pm 19:52 Cloudy with Light Rain 60 15.6 57 13.9 90 90 NNE 9 15 30.06 1018 6 10 0.01 0.25
8:52 pm 20:52 Cloudy 60 15.6 57 13.9 90 90 N 5 7 30.06 1018 9 14 0.00 0.03
9:52 pm 21:52 Cloudy 60 15.6 56 13.3 86 86 ENE 10 17 30.06 1018 10 16 0.00 0.00
10:13 pm 22:13 Cloudy 61 16 55 13 83 83 ENE 8 13 30.06 1018 10 16 0.00 0.00
10:52 pm 22:52 Cloudy 60 15.6 56 13.3 86 86 Calm 30.08 1019 10 16 0.00 0.00
11:02 pm 23:02 Cloudy 61 16 55 13 83 83 Calm 30.09 1019 10 16 0.00 0.00
11:52 pm 23:52 Cloudy 60 15.6 56 13.3 86 86 ESE 6 9 30.08 1019 10 16 0.00 0.00

Powered by AerisWeather